Regional Weather Roundup
Issued by NWS

Home | Current Version | Previous Version | Text Only | Print | Product List | Glossary Off
Versions: 1 2 3 4 5 6 7 8 9 10 11 12 13 14 15 16 17 18 19 20 21 22 23 24 25 26 27 28 29 30 31 32 33 34 35 36 37 38 39 40 41 42 43 44 45 46 47 48 49 50

983
ASUS43 KMKX 241411
RWRWI

WISCONSIN REGIONAL WEATHER ROUNDUP
NATIONAL WEATHER SERVICE MILWAUKEE/SULLIVAN WI
900 AM CDT SAT JUN 24 2017

NOTE: "FAIR" INDICATES FEW OR NO CLOUDS BELOW 12,000 FEET WITH NO
SIGNIFICANT WEATHER AND/OR OBSTRUCTIONS TO VISIBILITY.

WIZ001-002-006>008-014>016-023>028-241500-
NORTHWEST WISCONSIN

CITY           SKY/WX    TMP DP  RH WIND       PRES   REMARKS
SUPERIOR ARPT  NOT AVBL
ASHLAND        CLOUDY    57  50  77 W10       29.89R
HAYWARD        CLOUDY    55  46  71 VRB5      29.93R
SIREN          CLOUDY    56  45  66 W13G21    29.96S
CUMBERLAND     MOSUNNY   55  43  62 W12G17    29.96S
RICE LAKE      SUNNY     57  43  58 W10G17    29.97S
CHETEK         SUNNY     58  43  58 W10G21    29.96R
LADYSMITH      PTSUNNY   60  49  66 W14G22    29.95R
EAU CLAIRE     CLOUDY    57  44  62 W15G21    29.97R
MENOMONIE      PTSUNNY   58  47  68 W10       29.99R
NEW RICHMOND   PTSUNNY   57  42  57 NW13G18   29.99S
OSCEOLA        MOSUNNY   58  44  60 W13       30.02R
$$

WIZ003>005-009-010-017-018-241500-
NORTH CENTRAL WISCONSIN

CITY           SKY/WX    TMP DP  RH WIND       PRES   REMARKS
MANITOWISH WTR CLOUDY    52  52 100 W7        29.89R FOG
ARBOR VITAE    CLOUDY    57  52  84 NW9G16    29.88S
WOODRUFF       CLOUDY    57  52  84 NW9G16    29.88S
RHINELANDER    CLOUDY    56  51  84 NW7       29.89R
EAGLE RIVER    CLOUDY    55  49  80 W8        29.88R
LAND O LAKES   CLOUDY    55  51  89 W6        29.89R
PHILLIPS       CLOUDY    53  50  89 W3        29.91R
TOMAHAWK       NOT AVBL
MEDFORD        CLOUDY    55  47  76 NW12G18   29.93R
MERRILL        CLOUDY    56  51  82 NW9       29.91R
$$

WIZ029-030-035-036-043>047-241500-
CENTRAL WISCONSIN

CITY           SKY/WX    TMP DP  RH WIND       PRES   REMARKS
WAUSAU         CLOUDY    58  51  78 NW13      29.90R
MOSINEE        CLOUDY    57  52  82 NW10      29.93R
MARSHFIELD     SUNNY     59  48  67 NW18      29.93R
STEVENS POINT  PTSUNNY   58  49  71 NW10G17   29.93R
WAUPACA        SUNNY     64  51  61 W14G20    29.91R
WAUTOMA        PTSUNNY   63  51  65 W18       29.93R
WISC RAPIDS    SUNNY     62  49  62 NW14      29.95R
CAMP DOUGLAS   MOSUNNY   63  48  59 NW12      29.96R
$$

WIZ011>013-019>022-031-037>040-048>050-241500-
NORTHEAST WISCONSIN

CITY           SKY/WX    TMP DP  RH WIND       PRES   REMARKS
ANTIGO         CLOUDY    56  51  85 W15       29.90R
SHAWANO        CLOUDY    63  54  73 W9        29.88R
OCONTO         PTSUNNY   60  56  84 W8        29.85S
STURGEON BAY     N/A     61  55  81 NW9         N/A
GREEN BAY      CLOUDY    62  57  83 W13       29.88R
MANITOWOC      CLOUDY    63  54  72 NW14      29.88R
APPLETON       PTSUNNY   61  48  63 W15       29.88R
CLINTONVILLE   CLOUDY    61  52  72 W12G17    29.89R
OSHKOSH        MOSUNNY   62  51  67 W15G22    29.90R
$$

WIZ032>034-041-042-053>061-241500-
SOUTHWEST WISCONSIN

CITY           SKY/WX    TMP DP  RH WIND       PRES   REMARKS
LA CROSSE      PTSUNNY   66  50  56 NW13      29.98R
SPARTA         MOSUNNY   63  50  62 NW12G20   29.98R
VIROQUA        MOSUNNY   60  53  76 W8        30.00R
BOSCOBEL       SUNNY     66  51  58 NW7       29.99R
PRAIRIE DU CHI SUNNY     62  48  60 W9        30.01R
PLATTEVILLE    SUNNY     63  54  71 W8        30.01R
$$

WIZ056-057-062-063-064-067-068-241500-
SOUTH CENTRAL WISCONSIN

CITY           SKY/WX    TMP DP  RH WIND       PRES   REMARKS
REEDSBURG      MOSUNNY   62  48  59 NW14      29.97R
BARABOO/DELLS  MOSUNNY   63  48  58 W10G16    29.96R
LONE ROCK      SUNNY     63  50  62 W10G17    29.98R
MINERAL POINT  SUNNY     63  54  72 NW10      29.99R
MADISON        MOSUNNY   63  51  65 NW9G20    29.95R
MIDDLETON      SUNNY     64  52  64 NW12      29.97R
WATERTOWN      PTSUNNY   64  55  74 W13G18    29.94R
MONROE         SUNNY     63  50  63 NW12G18   29.98R
JANESVILLE     PTSUNNY   66  54  63 NW14G20   29.96R
$$

WIZ051-052-058>065-066-070>072-241500-
SOUTHEAST WISCONSIN

CITY           SKY/WX    TMP DP  RH WIND       PRES   REMARKS
MILWAUKEE      MOSUNNY   67  54  63 W14G21    29.91R
WAUKESHA       MOSUNNY   61  52  72 W15G21    29.94R
MILWAUKEE/TIMM MOSUNNY   64  52  63 W16       29.91R
RACINE         SUNNY     66  54  65 W13G20    29.92R
KENOSHA        SUNNY     66  55  67 W12G22    29.93R
FOND DU LAC    PTSUNNY   63  50  62 NW14G21   29.92R
SHEBOYGAN      CLOUDY    64  56  75 NW13G21   29.88R
WEST BEND      MOSUNNY   63  54  72 W12G23    29.91R
JUNEAU         PTSUNNY   61  53  74 W8G20     29.94R
$$

LSZ147-162-241500-
LAKE SUPERIOR

STATION/POSITION TIME  TEMP    WIND        PRES    WAVE
                       AIR SEA DIR/SP/G            HT/PER
                 (UTC) (F)     (DEG/KT/KT) (MB)    (FT/S)
W MID LAKE BUOY  1350   45 39  260/ 12/ 14 1010.6R   2/ 3
DEVILS ISLAND    1400   53     250/ 14/ 17 1011.6R
SAXON HARBOR     1330   57     230/  5/ 10 1011.5R
$$

LMZ867-665-643>646-241500-
LAKE MICHIGAN

STATION/POSITION TIME  TEMP    WIND        PRES    WAVE
                       AIR SEA DIR/SP/G            HT/PER
                 (UTC) (F)     (DEG/KT/KT) (MB)    (FT/S)
CHAMBERS ISLAND  1340   61     280/  2/  6 1010.2R
S GREEN BAY BUOY 1400   60     280/ 12/ 14 1010.8
N MID LAKE BUOY  1350   58 56  310/  8/ 10 1010.4R   1/ 4
NORTHPORT PIER   1340   60     310/  8/ 12 1010.2R
KEWAUNEE LAKESHO 1342   62     310/  6/ 13 1010.5R
SHEBOYGAN LAKESH 1400   63     310/ 14/ 17 1011.4R
PORT WASHINGTON  1330   66     290/ 13/ 17 1012.9R
ATWATER BUOY     1309   61 56  290/ 16/ 17 1012.2R
MILWAUKEE LAKESH 1350   64     280/ 10/ 12   N/A
S MID LAKE BUOY  1350   62 61  320/ 14/ 16 1012.5R   3/ 5
KENOSHA   LAKESH 1400   65     280/ 14/ 19 1013.2
$$

TC  - TEMPERATURE IN CELSIUS
VSB - VISIBILITY IN STATUTE MILES
WCI - WIND CHILL INDEX
HX  - HEAT INDEX





USA.gov is the U.S. government's official web portal to all federal, state and local government web resources and services.